Weather History for Hugo, OK

Change the Weather History Date:

Saturday, January 25, 2014

  Actual Average Record
Temperature  
Mean Temperature 48 °F -  
Max Temperature 67 °F 57 °F 67 °F (2014)
Min Temperature 30 °F 33 °F 30 °F (2014)
Degree Days  
Heating Degree Days 16    
Moisture  
Dew Point 26 °F    
Average Humidity 44    
Maximum Humidity 67    
Minimum Humidity 28    
Precipitation  
Precipitation 0.00 in - - ()
Sea Level Pressure  
Sea Level Pressure 30.06 in    
Wind  
Wind Speed 5 mph (SW)    
Max Wind Speed 10 mph    
Max Gust Speed -    
Visibility 10 miles    
Events      
Averages and records for this station are not official NWS values.
T = Trace of Precipitation, MM = Missing Value Source: NWS Daily Summary

Daily Weather History Graph

Daily Weather History Graph

Search for Another Location

Airport:

Trip Planner

Search our weather history database for the weather conditions in past years. The results will help you decide how hot, cold, wet, or windy it might be!

Date:

Astronomy

Jan. 25, 2014 Rise Set
Actual Time 7:23 AM CST 5:45 PM CST
Civil Twilight 6:56 AM CST 6:12 PM CST
Nautical Twilight 6:26 AM CST 6:42 PM CST
Astronomical Twilight 5:56 AM CST 7:12 PM CST
Moon 1:57 AM CST (1/25) 12:46 PM CST (1/25)
Length of Visible Light 11h 15m
Length of Day
10h 22m
Waning Crescent, 34% of the Moon is Illuminated
Jan 25
Waning Crescent
Jan 30
New
Feb 6
First Quarter
Feb 14
Full
Feb 22
Last Quarter

Hourly Weather History & Observations

Time (CST) Temp. Windchill Dew Point Humidity Pressure Visibility Wind Dir Wind Speed Gust Speed Precip Events Conditions
12:15 AM 34.2 °F 27.5 °F 13.8 °F 43% 30.18 in 10.0 mi SW 8.1 mph - N/A   Clear
12:35 AM 34.0 °F 27.2 °F 14.5 °F 45% 30.17 in 10.0 mi SSW 8.1 mph - N/A   Clear
12:55 AM 33.8 °F 27.7 °F 14.9 °F 46% 30.16 in 10.0 mi SW 6.9 mph - N/A   Clear
1:15 AM 33.8 °F 28.6 °F 15.1 °F 46% 30.15 in 10.0 mi SSW 5.8 mph - N/A   Clear
1:35 AM 33.4 °F 30.4 °F 15.3 °F 47% 30.15 in 10.0 mi SSW 3.5 mph - N/A   Clear
1:55 AM 33.1 °F 28.7 °F 14.9 °F 47% 30.14 in 10.0 mi SSW 4.6 mph - N/A   Clear
2:15 AM 33.1 °F 27.7 °F 15.6 °F 49% 30.13 in 10.0 mi SSW 5.8 mph - N/A   Clear
2:35 AM 33.4 °F 27.3 °F 16.7 °F 50% 30.13 in 10.0 mi SSW 6.9 mph - N/A   Clear
2:55 AM 33.8 °F 28.6 °F 17.4 °F 51% 30.12 in 10.0 mi SW 5.8 mph - N/A   Clear
3:15 AM 33.8 °F 28.6 °F 17.6 °F 52% 30.11 in 10.0 mi SW 5.8 mph - N/A   Clear
3:35 AM 33.8 °F 29.6 °F 17.6 °F 52% 30.10 in 10.0 mi SSW 4.6 mph - N/A   Clear
3:55 AM 33.1 °F 28.7 °F 18.3 °F 55% 30.09 in 10.0 mi SSW 4.6 mph - N/A   Clear
4:15 AM 32.9 °F 29.8 °F 18.3 °F 55% 30.09 in 10.0 mi SSW 3.5 mph - N/A   Clear
4:35 AM 32.5 °F 29.3 °F 18.3 °F 56% 30.07 in 10.0 mi SSW 3.5 mph - N/A   Clear
4:55 AM 32.5 °F - 18.1 °F 55% 30.07 in 10.0 mi Calm Calm - N/A   Clear
5:15 AM 32.0 °F - 18.3 °F 57% 30.07 in 10.0 mi Calm Calm - N/A   Clear
5:35 AM 32.2 °F 28.9 °F 18.1 °F 56% 30.07 in 10.0 mi SSW 3.5 mph - N/A   Clear
5:55 AM 32.0 °F - 18.1 °F 57% 30.06 in 10.0 mi Calm Calm - N/A   Clear
6:15 AM 32.0 °F - 18.3 °F 57% 30.07 in 10.0 mi Calm Calm - N/A   Clear
6:35 AM 31.1 °F - 18.1 °F 59% 30.06 in 10.0 mi Calm Calm - N/A   Clear
6:55 AM 30.6 °F - 18.7 °F 61% 30.07 in 10.0 mi Calm Calm - N/A   Clear
7:15 AM 30.4 °F - 18.5 °F 61% 30.08 in 10.0 mi Calm Calm - N/A   Clear
7:35 AM 30.4 °F - 19.2 °F 63% 30.08 in 10.0 mi Calm Calm - N/A   Clear
7:55 AM 31.1 °F - 20.7 °F 65% 30.09 in 10.0 mi Calm Calm - N/A   Clear
8:15 AM 32.2 °F - 22.5 °F 67% 30.09 in 10.0 mi Calm Calm - N/A   Clear
8:35 AM 35.1 °F - 22.5 °F 60% 30.10 in 10.0 mi Calm Calm - N/A   Clear
8:55 AM 36.7 °F - 21.0 °F 53% 30.10 in 10.0 mi Calm Calm - N/A   Clear
9:15 AM 39.2 °F - 21.0 °F 48% 30.10 in 10.0 mi Calm Calm - N/A   Clear
9:35 AM 41.5 °F 38.6 °F 20.8 °F 44% 30.10 in 10.0 mi WNW 4.6 mph - N/A   Clear
9:55 AM 43.7 °F 41.1 °F 19.9 °F 39% 30.10 in 10.0 mi WNW 4.6 mph - N/A   Clear
10:15 AM 45.0 °F 42.6 °F 20.5 °F 38% 30.10 in 10.0 mi WSW 4.6 mph - N/A   Clear
10:35 AM 47.1 °F - 21.7 °F 37% 30.11 in 10.0 mi West 5.8 mph - N/A   Clear
10:55 AM 49.1 °F - 22.5 °F 35% 30.11 in 10.0 mi WNW 5.8 mph - N/A   Clear
11:15 AM 50.9 °F - 22.8 °F 33% 30.11 in 10.0 mi NW 5.8 mph - N/A   Clear
11:35 AM 52.9 °F - 24.1 °F 33% 30.10 in 10.0 mi Calm Calm - N/A   Clear
11:55 AM 54.5 °F - 24.6 °F 31% 30.09 in 10.0 mi Calm Calm - N/A   Clear
12:15 PM 56.3 °F - 26.2 °F 32% 30.08 in 10.0 mi NNW 3.5 mph - N/A   Clear
12:35 PM 58.3 °F - 27.1 °F 30% 30.07 in 10.0 mi Calm Calm - N/A   Clear
12:55 PM 60.4 °F - 29.1 °F 31% 30.06 in 10.0 mi West 4.6 mph - N/A   Clear
1:15 PM 62.1 °F - 29.8 °F 30% 30.04 in 10.0 mi Calm Calm - N/A   Clear
1:35 PM 63.9 °F - 31.1 °F 29% 30.03 in 10.0 mi North 5.8 mph - N/A   Clear
1:55 PM 64.2 °F - 30.9 °F 29% 30.03 in 10.0 mi WSW 3.5 mph - N/A   Clear
2:15 PM 64.6 °F - 31.3 °F 29% 30.03 in 10.0 mi West 4.6 mph - N/A   Clear
2:35 PM 66.0 °F - 32.0 °F 28% 30.02 in 10.0 mi NW 3.5 mph - N/A   Clear
2:55 PM 66.6 °F - 32.2 °F 28% 30.02 in 10.0 mi West 3.5 mph - N/A   Clear
3:15 PM 67.1 °F - 32.7 °F 28% 30.01 in 10.0 mi West 6.9 mph - N/A   Clear
3:35 PM 67.5 °F - 32.7 °F 28% 30.01 in 10.0 mi WNW 10.4 mph - N/A   Clear
3:55 PM 67.1 °F - 32.7 °F 28% 30.01 in 10.0 mi WSW 5.8 mph - N/A   Clear
4:15 PM 67.1 °F - 32.9 °F 28% 30.01 in 10.0 mi West 3.5 mph - N/A   Clear
4:35 PM 66.6 °F - 33.1 °F 29% 30.01 in 10.0 mi SW 5.8 mph - N/A   Clear
4:55 PM 65.7 °F - 33.1 °F 30% 30.00 in 10.0 mi SSW 4.6 mph - N/A   Clear
5:15 PM 64.0 °F - 33.3 °F 32% 30.00 in 10.0 mi SSW 3.5 mph - N/A   Clear
5:35 PM 63.0 °F - 33.3 °F 33% 30.00 in 10.0 mi SSW 5.8 mph - N/A   Clear
5:55 PM 60.3 °F - 33.8 °F 37% 30.01 in 10.0 mi South 4.6 mph - N/A   Clear
6:15 PM 59.4 °F - 33.8 °F 38% 30.01 in 10.0 mi SSW 5.8 mph - N/A   Clear
6:35 PM 58.8 °F - 33.8 °F 39% 30.01 in 10.0 mi SSW 3.5 mph - N/A   Clear
6:55 PM 58.3 °F - 34.0 °F 40% 30.01 in 10.0 mi SSW 5.8 mph - N/A   Clear
7:15 PM 56.8 °F - 34.9 °F 44% 30.01 in 10.0 mi SW 5.8 mph - N/A   Clear
7:35 PM 58.1 °F - 34.3 °F 41% 30.01 in 10.0 mi SSW 5.8 mph - N/A   Clear
7:55 PM 57.2 °F - 34.2 °F 42% 30.01 in 10.0 mi SSW 6.9 mph - N/A   Clear
8:15 PM 57.2 °F - 34.7 °F 43% 30.01 in 10.0 mi SSW 5.8 mph - N/A   Clear
9:15 PM 54.7 °F - 34.7 °F 47% 29.99 in 10.0 mi SSW 6.9 mph - N/A   Clear
9:35 PM 54.7 °F - 35.2 °F 48% 29.99 in 10.0 mi SSW 8.1 mph - N/A   Clear
9:55 PM 54.7 °F - 35.6 °F 49% 29.99 in 10.0 mi SSW 6.9 mph - N/A   Clear
10:15 PM 54.1 °F - 35.2 °F 49% 29.98 in 10.0 mi SSW 6.9 mph - N/A   Clear
10:35 PM 53.6 °F - 35.1 °F 50% 29.98 in 10.0 mi SSW 5.8 mph - N/A   Clear
10:55 PM 53.1 °F - 34.9 °F 50% 29.98 in 10.0 mi SSW 6.9 mph - N/A   Clear
11:15 PM 52.7 °F - 34.7 °F 50% 29.97 in 10.0 mi SSW 6.9 mph - N/A   Clear
11:35 PM 52.0 °F - 34.7 °F 52% 29.96 in 10.0 mi SSW 6.9 mph - N/A   Clear
11:55 PM 51.3 °F - 34.5 °F 53% 29.96 in 10.0 mi SW 5.8 mph - N/A   Clear